User: anonymous   Login
Location: Unspecified
(0.0000°N, 0.0000°E)
Time: 22:31:31
(UTC+00:00)
Language:

OBJECT M - Orbit

View from above orbital plane
View from above orbital plane
View from above satellite
View from above satellite

Ground track
Ground track

The orbit data is extracted from the following two-line orbital elements,

1 42836U 17042M   18110.53070637  .00000234  00000-0  29067-4 0  9996
2 42836  97.6013  15.1430 0014358  39.1595 321.0660 14.91027588 41758
Epoch (UTC): 20 April 2018 12:44:13
Eccentricity: 0.0014358
inclination: 97.6013°
perigee height: 585 km
apogee height: 605 km
right ascension of ascending node: 15.1430°
argument of perigee: 39.1595°
revolutions per day: 14.91027588
mean anomaly at epoch: 321.0660°
orbit number at epoch: 4175

The dashed part of the orbit path shows where the satellite is in the earth's shadow,  

DLR